EW6361 Weather Reports


time (UTC)temp
C
wind
direction
speed
KPH
gust
KPH
rain 1hr
cm
rain 24hr
cm
rain mn
cm
humidity
%
barometer
mb
20260505124509 -17 0.0 0.0 0.00 0.00 0.00 1010.3
20260505123004 -17 0.0 0.0 0.00 0.00 0.00 1010.1
20260505121601 -17 0.0 0.0 0.00 0.00 0.00 1010.2
20260505120108 -17 0.0 0.0 0.00 0.00 0.00 1009.9
20260505114552 -17 0.0 0.0 0.00 0.00 0.00 1009.9
20260505113036 -17 0.0 0.0 0.00 0.00 0.00 1009.6
20260505111532 -17 0.0 0.0 0.00 0.00 0.00 1009.4
20260505101524 -17 0.0 0.0 0.00 0.00 0.00 1009.4
20260505100012 -17 0.0 0.0 0.00 0.00 0.00 1009.3
20260505094517 -17 0.0 0.0 0.00 0.00 0.00 1009.3
20260505093045 -17 0.0 0.0 0.00 0.00 0.00 1009.2
20260505091541 -17 0.0 0.0 0.00 0.00 0.00 1009.0
20260505090025 -17 0.0 0.0 0.00 0.00 0.00 1009.0
20260505084533 -17 0.0 0.0 0.00 0.00 0.00 1008.8
20260505083019 -17 0.0 0.0 0.00 0.00 0.00 1008.8
20260505081512 -17 0.0 0.0 0.00 0.00 0.00 1008.8
20260505080008 -17 0.0 0.0 0.00 0.00 0.00 1008.8
20260505074504 -17 0.0 0.0 0.00 0.00 0.00 1008.8
20260505073104 70 194 1.6 0.0 0.00 0.00 0.00 15 1008.8
20260505071556 57 232 1.6 0.0 0.00 0.00 0.00 20 1009.1
20260505070049 20 233 1.6 0.0 0.00 0.00 0.00 17 1009.2
20260505064535 19 234 1.6 0.0 0.00 0.00 0.00 21 1009.4
20260505063030 19 224 1.6 0.0 0.00 0.00 0.00 14 1009.8
20260505061534 19 216 1.6 0.0 0.00 0.00 0.00 3 1009.9
20260505060022 19 215 0.0 0.0 0.00 0.00 0.00 100 1010.0
20260505054517 20 215 1.6 0.0 0.00 0.00 0.00 5 1010.3
20260505053015 20 217 1.6 0.0 0.00 0.00 0.00 6 1010.4
20260505051513 19 213 1.6 0.0 0.00 0.00 0.00 100 1010.4
20260505050104 19 212 3.2 0.0 0.00 0.00 0.00 1 1010.4
20260505041531 19 215 1.6 0.0 0.00 0.00 0.00 10 1010.4
20260505040025 20 215 1.6 0.0 0.00 0.00 0.00 100 1010.6
20260505034520 20 214 3.2 0.0 0.00 0.00 0.00 100 1010.5
20260505033008 20 227 1.6 0.0 0.00 0.00 0.00 100 1010.5
20260505031505 20 226 1.6 0.0 0.00 0.00 0.00 100 1010.8
20260505030109 20 227 1.6 0.0 0.00 0.00 0.00 7 1010.5
20260505024604 20 212 3.2 0.0 0.00 0.00 0.00 100 1010.4
20260505023050 21 209 3.2 0.0 0.00 0.00 0.00 100 1010.4
20260505021536 21 214 1.6 0.0 0.00 0.00 0.00 100 1010.4
20260505020031 20 216 0.0 0.0 0.00 0.00 0.00 100 1010.5
20260505014533 21 186 0.0 0.0 0.00 0.00 0.00 100 1010.5
20260505013022 22 188 1.6 0.0 0.00 0.00 0.00 100 1010.7
20260505011518 21 196 0.0 0.0 0.00 0.00 0.00 100 1010.8
20260505010019 22 194 1.6 0.0 0.00 0.00 0.00 100 1010.8
20260505004510 21 186 3.2 0.0 0.00 0.00 0.00 10 1010.9
20260505003005 21 232 3.2 0.0 0.00 0.00 0.00 7 1010.7
20260505001549 22 181 4.8 0.0 0.00 0.00 0.00 4 1010.9
20260505000057 22 207 4.8 0.0 0.00 0.00 0.00 2 1010.9
20260504234547 22 195 3.2 0.0 0.00 0.00 0.00 30 1011.0
20260504233055 23 196 4.8 0.0 0.00 0.00 0.00 9 1010.9
20260504231533 22 189 8.0 0.0 0.00 0.00 0.00 40 1010.8
20260504230027 22 182 6.4 0.0 0.00 0.00 0.00 41 1010.9
20260504224523 22 194 6.4 0.0 0.00 0.00 0.00 41 1011.0
20260504223027 22 176 6.4 0.0 0.00 0.00 0.00 41 1011.0
20260504221556 22 200 8.0 0.0 0.00 0.00 0.00 42 1011.0
20260504220051 23 176 6.4 0.0 0.00 0.00 0.00 41 1010.9
20260504214531 23 188 8.0 0.0 0.00 0.00 0.00 41 1011.2
20260504213037 23 157 8.0 0.0 0.00 0.00 0.00 41 1011.0
20260504211509 23 194 8.0 0.0 0.00 0.00 0.00 39 1011.3
20260504210005 23 165 9.7 0.0 0.00 0.00 0.00 39 1011.4
20260504204600 23 183 6.4 0.0 0.00 0.00 0.00 39 1011.4
20260504203109 22 190 8.0 0.0 0.00 0.00 0.00 40 1011.4
20260504201556 22 106 8.0 0.0 0.00 0.00 0.00 39 1011.5
20260504200048 23 182 8.0 0.0 0.00 0.00 0.00 39 1011.8
20260504194543 23 98 6.4 0.0 0.00 0.00 0.00 39 1011.9
20260504193038 23 136 6.4 0.0 0.00 0.00 0.00 38 1012.0
20260504191524 23 171 4.8 0.0 0.00 0.00 0.00 38 1012.4
20260504190017 23 194 4.8 0.0 0.00 0.00 0.00 38 1012.5
20260504184512 23 259 3.2 0.0 0.00 0.00 0.00 38 1012.6
20260504183008 23 209 4.8 0.0 0.00 0.00 0.00 36 1013.0
20260504181511 23 148 3.2 0.0 0.00 0.00 0.00 36 1012.9
20260504180059 23 287 4.8 0.0 0.00 0.00 0.00 34 1013.0
20260504174609 22 167 6.4 0.0 0.00 0.00 0.00 36 1013.0
20260504173051 22 142 6.4 0.0 0.00 0.00 0.00 36 1013.3
20260504171530 23 157 6.4 0.0 0.00 0.00 0.00 34 1013.3
20260504160106 22 112 8.0 0.0 0.00 0.00 0.00 34 1013.8